Torna al catalogo

FENGYUN 1C DEB

AttivoSSO
NORAD 30012·DEBRIS·🇨🇳 China

Lanciato May 10, 1999 da Taiyuan Satellite Launch Center

Loading…

Prossimi Passaggi (prossime 24 ore)

TLE

AggiornatoSource: Space-Track

Epoca: Sep 14, 2026, 03:49 UTC

1 30012U 99025MM  26257.15913132  .00000173  00000-0  17589-3 0  9992
2 30012  99.4268 317.6026 0136881 132.6317 253.7618 13.85916994993638

Traccia FENGYUN 1C DEB in tempo reale con AllMySat

Download on the App Store